SCP
-0 -0 -0 -0 0 0 0 0 0 0 0 0 0 0 0 0 0 0 -0 -0 -0 0 0 0 0 0 0 0 0 0 0 0 0 0 0 0 0 0 0 0 0 0 -0
-0 -0 -0 0 0 0 0 0 0 0 0 0 0 0 0 0 0 0 -0 -0 -0 0 0 0 0 0 0 0 0 0 0 0 0 0 0 0 0 0 0 0 0 0 0
0 0 0 0 0 0 0 0 0 0 0 0 0 0 -0 0 0 0 0 -0 -0 -0 0 0 0 0 0 0 0 0 0 0 0 0 0 0 0 0 0 0 0 0 0
0 0 0 0 0 0 0 0 -0 -0 0 0 0 0 0 -0 0 0 0 -0 -0 -0 -0 0 0 0 0 0 0 0 0 0 0 0 0 0 0 0 0 0 0 0 0
0 0 0 0 0 0 0 0 0 0 0 0 0 0 0 0 -0 0 0 0 -0 -0 -0 0 0 0 0 0 0 0 0 0 0 0 0 0 0 0 0 0 0 0 0
0 0 0 0 0 0 0 0 0 0 0 0 0 0 0 0 0 0 0 0 -0 -0 -0 0 0 0 0 0 0 0 0 0 0 0 0 0 0 0 0 0 0 0 0
0 0 0 0 0 0 0 0 0 0 0 0 0 0 0 0 0 0 0 0 0 -0 -0 0 0 0 0 0 0 0 0 0 0 0 0 0 0 0 0 0 0 0 0
0 0 0 0 0 0 0 0 0 0 0 0 0 0 0 0 0 0 0 0 0 -0 -0 0 0 0 0 0 0 0 0 0 0 0 0 0 0 0 0 0 0 0 0
0 0 0 0 0 0 0 0 0 0 0 0 0 0 0 0 0 0 0 0 0 -0 -0 0 0 0 0 0 0 0 0 0 0 0 0 0 0 0 0 0 0 0 0
0 0 0 0 0 0 0 0 0 0 0 0 0 0 0 0 0 0 0 0 0 -0 -0 0 0 0 0 0 0 0 0 0 0 0 0 0 0 0 0 0 0 0 0
0 0 0 0 0 0 0 0 0 0 0 0 0 0 0 0 0 0 0 0 0 0 0 0 0 0 0 0 0 0 0 0 0 0 0 0 0 0 0 0 0 0 0
0 0 0 0 0 0 0 0 0 0 0 0 0 0 0 0 0 0 0 0 0 0 0 0 0 0 0 0 0 0 0 0 0 0 0 0 0 0 0 0 0 0 0
0 0 0 0 0 0 0 0 0 0 0 0 0 0 0 0 0 0 0 0 0 0 0 0 0 0 0 0 0 0 0 0 0 0 0 0 0 0 0 0 0 0 0
0 0 0 0 0 0 0 0 0 0 0 0 0 0 0 0 0 0 0 0 0 0 0 0 0 0 0 0 0 0 0 0 0 0 0 0 0 0 0 0 0 0 0
0 0 0 0 0 0 0 0 0 0 0 0 0 0 0 0 0 0 0 0 0 0 0 0 0 0 0 0 0 0 0 0 0 0 0 0 0 0 0 0 0 0 0
0 0 0 0 0 0 0 0 0 0 0 0 0 0 0 0 0 0 0 0 0 0 0 0 0 0 0 0 0 0 0 0 0 0 0 0 0 0 0 0 0 0 0
0 0 0 0 0 0 0 0 0 0 0 0 0 0 0 0 0 0 0 0 0 0 0 0 0 0 0 0 0 0 0 0 0 0 0 0 0 0 0 0 0 0 0
0 0 0 0 0 0 0 0 0 0 0 0 0 0 0 0 0 0 0 0 0 0 0 0 0 0 0 0 0 0 0 0 0 0 0 0 0 0 0 0 0 0 0
0 0 0 0 0 0 0 0 0 0 0 0 0 0 0 0 0 0 0 0 0 0 0 0 0 0 0 0 0 0 0 0 0 0 0 0 0 0 0 0 0 0 0
0 0 0 0 0 0 0 0 0 0 0 0 0 0 0 0 0 0 0 0 0 0 0 0 0 0 0 0 0 0 0 0 0 0 0 0 0 0 0 0 0 0 0
0 0 0 0 0 0 0 0 0 0 0 0 0 0 0 0 0 0 0 0 0 0 0 0 0 0 0 0 0 0 0 0 0 0 0 0 0 0 0 0 0 0 0
0 0 0 0 0 0 0 0 0 0 0 0 0 0 0 0 0 0 0 0 0 0 0 0 0 0 0 0 0 0 0 0 0 0 0 0 0 0 0 0 0 0 0
0 0 0 0 0 0 0 0 0 0 0 0 0 0 0 0 0 0 0 0 0 0 0 0 0 0 0 0 0 0 0 0 0 0 0 0 0 0 0 0 0 0 0
0 0 0 0 0 0 0 0 0 0 0 -0 -0 0 0 0 0 0 0 0 0 0 0 0 0 0 0 0 0 0 0 0 0 0 0 0 0 0 0 0 0 0 0
-0 0 0 0 0 0 0 0 0 0 0 0 -0 -0 0 0 0 0 0 0 0 0 0 0 0 0 0 0 0 0 0 0 0 0 0 0 0 0 0 0 0 0 0
0 0 0 0 0 0 0 0 0 0 0 0 -0 -0 -0 -0 0 0 0 0 0 0 0 0 0 0 0 0 0 0 0 0 0 0 0 0 0 0 0 0 0 0 0
Wind_Speed_500mb
63 48 12 8 8 10 13 16 14 12 10 10 9 9 10 9 7 6 7 10 6 9 17 20 17 20 23 18 18 25 23 26 23 17 16 19 19 22 22 20 19 18 20
55 36 2 5 9 13 13 16 19 17 15 14 14 13 15 15 13 6 2 6 9 4 18 27 23 23 27 21 22 22 26 23 22 17 9 12 16 18 20 17 17 15 19
55 23 5 9 15 17 20 18 19 21 21 17 15 19 20 20 19 17 10 3 6 10 2 17 26 34 27 30 18 22 29 24 19 19 14 13 15 15 11 11 14 16 16
48 31 9 4 10 19 21 22 21 21 21 22 18 21 23 24 24 23 16 9 4 3 9 7 14 20 28 31 23 23 26 23 20 19 16 13 11 13 11 11 13 18 18
39 35 18 10 21 20 24 22 21 23 25 26 24 23 27 28 25 28 24 15 8 4 10 5 13 18 26 26 25 22 20 19 20 18 15 13 11 10 10 11 13 16 13
32 28 22 23 35 31 30 25 23 26 29 32 32 31 31 33 35 36 33 23 14 7 9 9 15 20 23 25 25 23 20 17 16 18 16 13 10 10 9 10 13 14 11
35 30 29 25 29 36 34 32 30 30 31 33 35 37 40 37 35 40 44 29 17 11 12 13 14 25 25 26 26 24 22 18 16 15 14 13 12 10 9 10 13 14 13
38 34 29 31 30 27 35 38 43 38 37 36 37 35 38 38 32 38 42 32 19 12 11 15 21 24 31 29 28 26 23 20 17 16 15 14 13 12 11 11 11 13 14
36 36 33 31 33 34 33 34 38 48 43 39 39 37 36 37 36 38 44 35 22 13 9 14 18 26 34 33 31 29 26 23 21 20 19 18 16 15 14 13 13 13 16
46 44 41 38 32 36 38 39 39 41 44 47 43 41 37 37 45 45 45 40 30 20 12 15 15 25 35 35 34 31 29 26 25 24 24 22 20 19 17 15 16 16 16
55 57 53 48 45 41 39 43 45 43 41 47 52 47 40 40 46 50 47 47 37 28 16 19 17 19 32 35 36 34 32 29 28 26 25 25 23 22 21 19 18 17 17
73 62 58 60 54 48 46 43 46 51 50 49 46 51 49 46 45 52 54 49 45 41 29 27 24 20 28 35 37 37 35 33 31 29 27 27 25 24 24 21 18 20 20
74 73 69 62 60 60 55 52 47 51 52 56 50 51 55 53 50 50 56 56 57 45 42 36 36 31 29 33 38 39 38 36 34 31 29 29 27 28 26 25 22 22 22
71 71 72 70 66 63 63 58 58 54 56 57 59 54 53 63 62 56 60 64 65 52 48 45 46 42 41 39 41 43 41 40 37 35 32 31 30 30 30 28 24 21 23
78 78 75 73 71 66 66 67 62 61 58 62 63 63 58 56 71 66 64 66 67 56 55 52 52 49 48 46 44 45 44 42 40 37 35 34 33 32 32 32 28 24 22
81 80 79 73 64 65 68 68 65 61 60 60 65 64 63 65 54 77 71 71 70 68 64 56 52 49 45 45 45 47 45 45 43 41 39 37 37 37 37 36 34 32 29
79 76 70 67 64 62 63 62 62 58 52 56 61 63 64 67 66 45 81 76 79 74 65 57 53 51 49 46 46 47 47 45 45 42 41 39 39 39 39 39 38 36 36
77 73 67 61 61 61 60 61 60 58 53 49 53 58 61 68 75 53 68 79 85 81 69 62 58 58 55 50 47 45 46 46 44 42 40 40 38 40 42 42 42 40 40
75 71 66 65 65 69 63 60 61 56 55 47 43 50 54 61 72 82 50 69 87 83 79 70 67 64 61 55 49 45 44 44 43 42 43 41 42 42 42 42 42 41 40
79 73 65 67 69 68 66 63 59 60 51 37 36 40 44 50 54 62 73 67 83 88 79 82 74 73 68 59 53 48 43 43 44 46 46 44 44 47 46 45 45 44 45
78 72 67 66 69 72 70 68 64 53 42 37 34 32 32 35 41 56 58 40 74 76 81 76 77 78 78 69 59 51 50 49 48 50 49 49 50 49 48 50 49 49 49
73 67 66 62 65 73 68 58 52 48 36 31 25 19 14 16 22 40 42 50 50 63 78 78 80 85 87 84 67 59 39 52 54 56 54 54 55 54 53 50 51 50 48
70 64 59 61 65 63 61 57 44 40 38 34 38 30 23 11 1 16 38 32 35 51 79 73 86 91 89 75 71 61 24 24 46 53 56 53 52 57 58 55 54 52 46
62 56 59 57 63 57 60 47 48 39 44 40 37 29 24 14 10 4 9 21 30 22 41 61 52 59 78 76 76 83 76 30 32 25 40 42 40 39 39 43 48 50 47
67 70 71 67 65 62 58 58 66 67 64 47 46 42 36 26 25 21 6 8 9 13 23 23 25 37 63 67 59 71 79 86 59 44 35 39 36 34 36 33 36 37 40
59 65 73 77 78 81 77 81 82 87 82 78 80 72 65 56 48 40 27 20 20 22 18 22 24 26 27 13 29 32 31 42 52 59 45 49 48 39 40 40 43 49 51
Wind_Direction_500mb
342 340 292 276 291 304 298 295 288 278 275 280 259 239 220 197 179 132 70 51 57 137 148 138 166 177 159 166 173 175 165 166 155 152 156 124 115 112 107 94 92 93 93
337 337 334 336 312 308 308 298 283 268 262 262 243 231 237 213 191 177 60 42 40 51 162 162 169 194 188 187 194 192 187 181 190 190 159 134 131 128 127 112 121 118 99
348 11 62 3 328 307 301 300 290 268 259 259 248 229 233 227 215 219 196 157 58 40 163 193 188 189 197 196 194 178 182 188 182 184 178 159 149 140 135 126 119 127 113
348 3 7 289 353 292 284 287 287 274 260 257 257 241 237 234 232 227 205 192 169 15 359 234 213 191 187 189 185 167 171 176 174 173 171 168 162 146 142 141 137 136 123
344 355 343 284 291 282 255 267 274 271 265 266 259 255 245 244 236 225 222 208 208 303 332 266 215 195 188 193 188 178 178 178 182 179 176 173 169 166 160 158 157 151 137
343 343 319 306 303 290 276 259 256 260 267 270 273 267 258 251 244 240 229 213 217 264 301 260 226 205 196 192 189 188 189 189 189 196 200 198 196 182 181 180 177 175 159
352 339 327 310 306 295 281 274 260 247 254 263 272 271 263 261 255 250 218 215 221 253 273 259 236 216 204 200 202 205 204 201 198 202 208 215 217 210 197 196 200 196 187
350 348 330 313 306 292 285 272 267 255 245 251 264 268 266 259 258 232 214 213 223 247 270 262 233 225 210 208 210 216 218 217 216 218 219 222 225 225 214 211 209 210 206
346 338 337 326 309 299 290 279 274 267 257 249 256 262 263 249 243 227 215 217 219 213 276 293 235 223 215 214 217 219 224 228 232 233 230 233 233 232 229 223 218 215 212
348 343 334 328 322 307 292 282 270 262 260 255 248 253 254 251 238 238 226 221 221 221 249 287 267 235 216 216 219 223 227 232 236 237 237 235 238 234 233 228 222 220 217
348 343 337 331 322 316 302 290 278 264 258 248 251 251 244 246 244 236 234 223 227 231 232 263 275 246 222 223 225 229 232 235 240 241 242 239 239 235 232 234 230 225 220
344 344 337 329 324 317 311 297 285 277 265 256 252 247 249 244 244 240 236 236 234 237 227 251 259 258 237 235 234 234 236 237 240 244 241 238 239 239 238 238 234 227 222
342 339 338 331 324 317 311 306 292 276 270 261 248 241 245 245 243 242 234 232 234 229 231 242 248 253 256 245 241 240 241 243 243 243 240 238 239 236 235 235 236 233 223
342 339 335 331 325 318 313 306 298 287 269 263 254 246 233 242 240 237 235 233 235 233 230 235 247 253 254 250 244 243 243 245 245 245 243 241 241 237 237 236 238 244 232
344 341 337 332 328 322 314 306 299 290 280 263 258 248 242 239 239 236 232 232 234 235 243 241 247 250 251 246 244 244 244 245 245 245 245 245 244 241 240 239 233 235 253
347 343 339 337 338 333 326 316 306 297 282 272 258 254 241 232 245 236 233 228 233 235 242 244 246 247 245 246 245 242 243 244 244 245 248 246 245 242 239 237 238 226 231
350 346 352 349 349 342 337 332 326 316 297 280 266 256 248 235 230 239 240 232 234 236 240 239 240 238 241 246 245 240 242 242 244 246 249 249 245 242 240 240 239 234 226
353 349 354 352 347 345 340 338 329 320 308 293 280 265 254 241 234 238 242 235 240 238 238 238 238 237 241 247 251 246 243 243 245 246 248 249 248 246 244 242 241 239 234
353 350 352 350 347 345 343 337 329 327 316 300 290 276 261 250 236 234 245 236 242 246 234 238 238 239 242 246 249 248 245 245 246 246 247 249 245 243 241 239 239 239 237
3 1 359 354 351 347 350 350 341 331 329 314 304 292 267 255 244 232 230 235 238 243 241 236 237 238 241 244 247 247 246 245 244 245 248 247 244 243 243 242 240 239 240
10 10 11 1 358 358 355 354 348 342 332 325 316 304 280 260 247 231 231 256 251 247 244 247 245 242 241 240 240 242 241 242 245 247 250 248 246 246 246 244 242 243 246
14 14 12 7 9 6 0 1 355 350 355 355 353 346 342 279 255 232 234 254 264 258 250 257 254 249 246 243 234 236 236 240 242 246 247 248 249 248 247 246 245 245 246
19 20 25 25 24 19 9 8 14 15 22 24 41 62 61 66 181 224 233 270 289 270 252 255 263 245 246 244 241 234 208 212 223 237 240 242 245 249 247 244 243 242 243
29 29 34 36 40 27 20 31 36 40 38 55 63 52 54 71 91 142 230 271 282 313 254 244 245 254 278 239 240 237 234 228 201 202 222 229 234 242 242 246 243 239 234
49 46 47 43 48 41 47 52 56 56 55 57 65 62 79 71 93 94 78 336 323 303 284 293 308 267 260 249 238 238 241 240 234 226 199 203 209 210 216 209 213 221 230
49 51 52 54 52 53 50 53 60 62 63 68 70 71 67 65 68 78 83 88 83 91 83 29 25 353 347 301 248 244 240 236 231 223 207 195 191 179 185 183 180 168 166
Wind_Speed_850mb
63 48 12 8 8 10 13 16 14 12 10 10 9 9 10 9 7 6 7 10 6 9 17 20 17 20 23 18 18 25 23 26 23 17 16 19 19 22 22 20 19 18 20
55 36 2 5 9 13 13 16 19 17 15 14 14 13 15 15 13 6 2 6 9 4 18 27 23 23 27 21 22 22 26 23 22 17 9 12 16 18 20 17 17 15 19
55 23 5 9 15 17 20 18 19 21 21 17 15 19 20 20 19 17 10 3 6 10 2 17 26 34 27 30 18 22 29 24 19 19 14 13 15 15 11 11 14 16 16
48 31 9 4 10 19 21 22 21 21 21 22 18 21 23 24 24 23 16 9 4 3 9 7 14 20 28 31 23 23 26 23 20 19 16 13 11 13 11 11 13 18 18
39 35 18 10 21 20 24 22 21 23 25 26 24 23 27 28 25 28 24 15 8 4 10 5 13 18 26 26 25 22 20 19 20 18 15 13 11 10 10 11 13 16 13
32 28 22 23 35 31 30 25 23 26 29 32 32 31 31 33 35 36 33 23 14 7 9 9 15 20 23 25 25 23 20 17 16 18 16 13 10 10 9 10 13 14 11
35 30 29 25 29 36 34 32 30 30 31 33 35 37 40 37 35 40 44 29 17 11 12 13 14 25 25 26 26 24 22 18 16 15 14 13 12 10 9 10 13 14 13
38 34 29 31 30 27 35 38 43 38 37 36 37 35 38 38 32 38 42 32 19 12 11 15 21 24 31 29 28 26 23 20 17 16 15 14 13 12 11 11 11 13 14
36 36 33 31 33 34 33 34 38 48 43 39 39 37 36 37 36 38 44 35 22 13 9 14 18 26 34 33 31 29 26 23 21 20 19 18 16 15 14 13 13 13 16
46 44 41 38 32 36 38 39 39 41 44 47 43 41 37 37 45 45 45 40 30 20 12 15 15 25 35 35 34 31 29 26 25 24 24 22 20 19 17 15 16 16 16
55 57 53 48 45 41 39 43 45 43 41 47 52 47 40 40 46 50 47 47 37 28 16 19 17 19 32 35 36 34 32 29 28 26 25 25 23 22 21 19 18 17 17
73 62 58 60 54 48 46 43 46 51 50 49 46 51 49 46 45 52 54 49 45 41 29 27 24 20 28 35 37 37 35 33 31 29 27 27 25 24 24 21 18 20 20
74 73 69 62 60 60 55 52 47 51 52 56 50 51 55 53 50 50 56 56 57 45 42 36 36 31 29 33 38 39 38 36 34 31 29 29 27 28 26 25 22 22 22
71 71 72 70 66 63 63 58 58 54 56 57 59 54 53 63 62 56 60 64 65 52 48 45 46 42 41 39 41 43 41 40 37 35 32 31 30 30 30 28 24 21 23
78 78 75 73 71 66 66 67 62 61 58 62 63 63 58 56 71 66 64 66 67 56 55 52 52 49 48 46 44 45 44 42 40 37 35 34 33 32 32 32 28 24 22
81 80 79 73 64 65 68 68 65 61 60 60 65 64 63 65 54 77 71 71 70 68 64 56 52 49 45 45 45 47 45 45 43 41 39 37 37 37 37 36 34 32 29
79 76 70 67 64 62 63 62 62 58 52 56 61 63 64 67 66 45 81 76 79 74 65 57 53 51 49 46 46 47 47 45 45 42 41 39 39 39 39 39 38 36 36
77 73 67 61 61 61 60 61 60 58 53 49 53 58 61 68 75 53 68 79 85 81 69 62 58 58 55 50 47 45 46 46 44 42 40 40 38 40 42 42 42 40 40
75 71 66 65 65 69 63 60 61 56 55 47 43 50 54 61 72 82 50 69 87 83 79 70 67 64 61 55 49 45 44 44 43 42 43 41 42 42 42 42 42 41 40
79 73 65 67 69 68 66 63 59 60 51 37 36 40 44 50 54 62 73 67 83 88 79 82 74 73 68 59 53 48 43 43 44 46 46 44 44 47 46 45 45 44 45
78 72 67 66 69 72 70 68 64 53 42 37 34 32 32 35 41 56 58 40 74 76 81 76 77 78 78 69 59 51 50 49 48 50 49 49 50 49 48 50 49 49 49
73 67 66 62 65 73 68 58 52 48 36 31 25 19 14 16 22 40 42 50 50 63 78 78 80 85 87 84 67 59 39 52 54 56 54 54 55 54 53 50 51 50 48
70 64 59 61 65 63 61 57 44 40 38 34 38 30 23 11 1 16 38 32 35 51 79 73 86 91 89 75 71 61 24 24 46 53 56 53 52 57 58 55 54 52 46
62 56 59 57 63 57 60 47 48 39 44 40 37 29 24 14 10 4 9 21 30 22 41 61 52 59 78 76 76 83 76 30 32 25 40 42 40 39 39 43 48 50 47
67 70 71 67 65 62 58 58 66 67 64 47 46 42 36 26 25 21 6 8 9 13 23 23 25 37 63 67 59 71 79 86 59 44 35 39 36 34 36 33 36 37 40
59 65 73 77 78 81 77 81 82 87 82 78 80 72 65 56 48 40 27 20 20 22 18 22 24 26 27 13 29 32 31 42 52 59 45 49 48 39 40 40 43 49 51
Wind_Direction_850mb
342 340 292 276 291 304 298 295 288 278 275 280 259 239 220 197 179 132 70 51 57 137 148 138 166 177 159 166 173 175 165 166 155 152 156 124 115 112 107 94 92 93 93
337 337 334 336 312 308 308 298 283 268 262 262 243 231 237 213 191 177 60 42 40 51 162 162 169 194 188 187 194 192 187 181 190 190 159 134 131 128 127 112 121 118 99
348 11 62 3 328 307 301 300 290 268 259 259 248 229 233 227 215 219 196 157 58 40 163 193 188 189 197 196 194 178 182 188 182 184 178 159 149 140 135 126 119 127 113
348 3 7 289 353 292 284 287 287 274 260 257 257 241 237 234 232 227 205 192 169 15 359 234 213 191 187 189 185 167 171 176 174 173 171 168 162 146 142 141 137 136 123
344 355 343 284 291 282 255 267 274 271 265 266 259 255 245 244 236 225 222 208 208 303 332 266 215 195 188 193 188 178 178 178 182 179 176 173 169 166 160 158 157 151 137
343 343 319 306 303 290 276 259 256 260 267 270 273 267 258 251 244 240 229 213 217 264 301 260 226 205 196 192 189 188 189 189 189 196 200 198 196 182 181 180 177 175 159
352 339 327 310 306 295 281 274 260 247 254 263 272 271 263 261 255 250 218 215 221 253 273 259 236 216 204 200 202 205 204 201 198 202 208 215 217 210 197 196 200 196 187
350 348 330 313 306 292 285 272 267 255 245 251 264 268 266 259 258 232 214 213 223 247 270 262 233 225 210 208 210 216 218 217 216 218 219 222 225 225 214 211 209 210 206
346 338 337 326 309 299 290 279 274 267 257 249 256 262 263 249 243 227 215 217 219 213 276 293 235 223 215 214 217 219 224 228 232 233 230 233 233 232 229 223 218 215 212
348 343 334 328 322 307 292 282 270 262 260 255 248 253 254 251 238 238 226 221 221 221 249 287 267 235 216 216 219 223 227 232 236 237 237 235 238 234 233 228 222 220 217
348 343 337 331 322 316 302 290 278 264 258 248 251 251 244 246 244 236 234 223 227 231 232 263 275 246 222 223 225 229 232 235 240 241 242 239 239 235 232 234 230 225 220
344 344 337 329 324 317 311 297 285 277 265 256 252 247 249 244 244 240 236 236 234 237 227 251 259 258 237 235 234 234 236 237 240 244 241 238 239 239 238 238 234 227 222
342 339 338 331 324 317 311 306 292 276 270 261 248 241 245 245 243 242 234 232 234 229 231 242 248 253 256 245 241 240 241 243 243 243 240 238 239 236 235 235 236 233 223
342 339 335 331 325 318 313 306 298 287 269 263 254 246 233 242 240 237 235 233 235 233 230 235 247 253 254 250 244 243 243 245 245 245 243 241 241 237 237 236 238 244 232
344 341 337 332 328 322 314 306 299 290 280 263 258 248 242 239 239 236 232 232 234 235 243 241 247 250 251 246 244 244 244 245 245 245 245 245 244 241 240 239 233 235 253
347 343 339 337 338 333 326 316 306 297 282 272 258 254 241 232 245 236 233 228 233 235 242 244 246 247 245 246 245 242 243 244 244 245 248 246 245 242 239 237 238 226 231
350 346 352 349 349 342 337 332 326 316 297 280 266 256 248 235 230 239 240 232 234 236 240 239 240 238 241 246 245 240 242 242 244 246 249 249 245 242 240 240 239 234 226
353 349 354 352 347 345 340 338 329 320 308 293 280 265 254 241 234 238 242 235 240 238 238 238 238 237 241 247 251 246 243 243 245 246 248 249 248 246 244 242 241 239 234
353 350 352 350 347 345 343 337 329 327 316 300 290 276 261 250 236 234 245 236 242 246 234 238 238 239 242 246 249 248 245 245 246 246 247 249 245 243 241 239 239 239 237
3 1 359 354 351 347 350 350 341 331 329 314 304 292 267 255 244 232 230 235 238 243 241 236 237 238 241 244 247 247 246 245 244 245 248 247 244 243 243 242 240 239 240
10 10 11 1 358 358 355 354 348 342 332 325 316 304 280 260 247 231 231 256 251 247 244 247 245 242 241 240 240 242 241 242 245 247 250 248 246 246 246 244 242 243 246
14 14 12 7 9 6 0 1 355 350 355 355 353 346 342 279 255 232 234 254 264 258 250 257 254 249 246 243 234 236 236 240 242 246 247 248 249 248 247 246 245 245 246
19 20 25 25 24 19 9 8 14 15 22 24 41 62 61 66 181 224 233 270 289 270 252 255 263 245 246 244 241 234 208 212 223 237 240 242 245 249 247 244 243 242 243
29 29 34 36 40 27 20 31 36 40 38 55 63 52 54 71 91 142 230 271 282 313 254 244 245 254 278 239 240 237 234 228 201 202 222 229 234 242 242 246 243 239 234
49 46 47 43 48 41 47 52 56 56 55 57 65 62 79 71 93 94 78 336 323 303 284 293 308 267 260 249 238 238 241 240 234 226 199 203 209 210 216 209 213 221 230
49 51 52 54 52 53 50 53 60 62 63 68 70 71 67 65 68 78 83 88 83 91 83 29 25 353 347 301 248 244 240 236 231 223 207 195 191 179 185 183 180 168 166